Lid_Strength_Index
2 1 1 1 1 0 0 0 0 2 1 1 1 2 1 2 1 1 1 1 1 -0 -0 -1 -1 -0 -0
2 2 2 1 1 1 1 0 1 1 2 1 1 2 2 2 2 1 1 1 1 1 -0 -0 -0 -0 -0
3 2 2 1 1 1 1 1 1 3 1 1 1 2 2 2 2 3 3 3 3 3 2 1 0 -0 -0
3 3 2 2 2 3 3 1 2 1 2 1 2 2 2 2 3 4 4 4 3 3 3 3 3 2 1
4 3 3 3 3 2 3 2 2 1 1 1 1 1 1 2 3 4 4 4 3 3 3 3 3 3 2
3 4 3 3 2 3 3 4 5 1 2 2 1 1 1 0 2 2 3 3 3 3 3 2 3 3 3
3 3 4 5 3 3 3 3 4 2 2 4 2 3 1 3 4 4 3 2 3 3 3 3 3 3 4
6 7 7 7 7 5 4 3 2 4 5 5 3 3 3 5 5 5 5 5 5 5 5 5 4 4 4
9 9 9 8 8 5 7 7 7 7 10 8 7 7 7 8 8 7 8 7 7 8 8 8 8 7 6
11 12 12 11 10 10 10 10 10 10 11 11 11 11 10 9 9 9 9 9 9 9 9 9 9 9 9
13 13 13 14 14 13 12 12 12 12 12 11 12 12 12 12 11 11 11 10 10 10 9 9 10 10 10
14 15 15 14 14 15 14 14 13 13 12 12 13 13 13 13 13 13 12 11 11 11 10 10 9 9 11
14 15 15 15 14 14 14 15 15 14 14 14 14 14 14 14 14 14 13 13 12 12 12 11 11 10 12
15 14 14 14 15 15 15 14 14 14 15 15 15 14 14 14 14 15 14 15 13 13 13 12 12 11 11
15 15 15 15 15 14 15 15 15 15 14 14 14 15 15 15 17 16 15 15 14 14 15 15 14 13 13
15 16 16 16 16 15 14 15 16 16 16 14 14 14 15 14 14 16 16 16 15 15 15 16 15 13 13
16 17 17 16 16 16 16 15 15 15 16 15 15 16 17 17 16 12 17 16 15 15 15 14 15 15 14